星链-34381 (STARLINK-34381)

导读

STARLINK-34381是美国太空探索技术公司SpaceX于2025年6月4日发射的星链(Starlink)低轨通信卫星,属于第二代星链星座组网的卫星之一,运行在近地轨道。星链系统旨在为全球提供高速卫星互联网接入服务,当前已覆盖超155个国家,服务家庭、航空、航海及手机直连场景,该卫星将进一步补充星链星座的全球覆盖与通信容量,提升服务的稳定性和并发能力,推动卫星互联网的普及与场景拓展。

Basic Information
目录编号:
64282
目录名称:
STARLINK-34381
国际标识:
2025-120AC
轨道中心:
EARTH
卫星名称:
星链-34381
卫星全名:
星链-34381 (STARLINK-34381)
卫星状态:
在轨 (已飞行457 天)
发射日期:
2025-06-04 UTC
国别 :
美国 (US)
星等 :
--
Orbit Information
数据来源 国际轨道数据
星历时间: 2026-09-01T22:02:44+0800
2天前
查看轨道信息
半长轴: 6840.838km
偏心率: 0.0001262
轨道倾角: 53.160°
近地点辐角 42.672°
升交点赤经 18.463°
平近点角 317.438°
近地点: 461.837km
远地点: 463.565km
周期: 93.848分钟
每日圈数: 15.344008
Detailed Information
固有亮度:
5
最大亮度:
2.5
卫星平台:
Starlink V1.0
覆盖范围:
全球
运营商:
太空探索技术公司
运营商所在国:
美国
制造商(研发单位):
太空探索技术公司
制造商所在国:
美国
使用方式:
暂无
Satellite Introduction
Starlink 计划是 SpaceX 推出的全球卫星互联网项目,通过发射低轨道卫星,为全球尤其是偏远地区提供高速、低延迟的互联网服务。自 2019 年起,Starlink 已部署数千颗卫星,旨在缩小全球数字鸿沟,推动互联网普及。该项目还为军事、航空等行业提供通信支持,带来广泛经济效益。
2D Orbit Map
3D Orbit Map
Orbit Altitude Analysis Chart
Orbit Inclination Analysis Chart
Orbit Comprehensive Analysis Chart
View Comprehensive Chart
Conjunction Data List
Event ID Objects TCA Miss Dist (km) Collision Risk Probability Collision Risk Index (CRI) Action
CDM_260904-194106-420506-428221
2026-09-04T
19:41:59+0000
0.291 km
中距离
4.002145E-4 高风险 0.87
CDM_260904-180806-420506-428221
2026-09-04T
18:08:12+0000
1.018 km
极远距离
1.61552E-5 中风险 0.59
CDM_260904-211506-420506-428221
2026-09-04T
21:15:47+0000
1.546 km
极远距离
3.938411E-6 低风险 0.47
CDM_260904-142306-428206-982921
2026-09-04T
14:23:55+0000
1.424 km
极远距离
3.506794E-6 低风险 0.46
CDM_260904-163406-420506-428221
2026-09-04T
16:34:25+0000
2.261 km
极远距离
1.447084E-6 低风险 0.38
CDM_260904-195206-428206-982921
2026-09-04T
19:52:11+0000
2.100 km
极远距离
1.208761E-6 低风险 0.37
CDM_260904-224906-420506-428221
2026-09-04T
22:49:34+0000
2.841 km
极远距离
9.913814E-7 极低风险 0.35
CDM_260904-125006-428206-982921
2026-09-04T
12:50:07+0000
2.805 km
极远距离
7.369262E-7 极低风险 0.32
CDM_260904-181806-428206-982921
2026-09-04T
18:18:24+0000
2.933 km
极远距离
6.982439E-7 极低风险 0.32